GW2516 Weather Reports


time (UTC)temp
F
wind
direction
speed
knots
gust
knots
rain 1hr
in
rain 24hr
in
rain mn
in
humidity
%
barometer
mb
20260507095524 53 309 3.5 7.0 0.00 0.00 0.00 78 1021.0
20260507095029 53 348 2.6 5.2 0.00 0.00 0.00 78 1021.0
20260507094543 53 313 2.6 5.2 0.00 0.00 0.00 78 1021.0
20260507094027 53 307 1.7 5.2 0.00 0.00 0.00 78 1021.0
20260507093524 53 326 0.9 5.2 0.00 0.00 0.00 79 1021.1
20260507093045 53 292 0.9 4.3 0.00 0.00 0.00 79 1021.1
20260507092526 53 328 0.9 5.2 0.00 0.00 0.00 78 1021.1
20260507092023 53 273 0.9 5.2 0.00 0.00 0.00 78 1021.1
20260507091541 53 342 2.6 7.8 0.00 0.00 0.00 78 1021.1
20260507091024 53 340 2.6 7.8 0.00 0.00 0.00 78 1021.3
20260507090525 53 314 3.5 7.8 0.00 0.00 0.00 78 1021.2
20260507090042 53 328 2.6 7.0 0.00 0.00 0.00 78 1021.2
20260507085524 54 311 1.7 7.0 0.00 0.00 0.00 77 1021.1
20260507085024 54 319 2.6 6.1 0.00 0.00 0.00 77 1021.3
20260507084544 54 329 1.7 6.1 0.00 0.00 0.00 77 1021.2
20260507084028 54 314 2.6 6.1 0.00 0.00 0.00 77 1021.2
20260507083526 54 310 0.9 6.1 0.00 0.00 0.00 77 1021.3
20260507083044 54 221 1.7 7.8 0.00 0.00 0.00 77 1021.3
20260507082524 54 115 3.5 7.8 0.00 0.00 0.00 77 1021.3
20260507082023 54 333 1.7 7.0 0.00 0.00 0.00 77 1021.3
20260507081541 54 0 2.6 7.0 0.00 0.00 0.00 77 1021.3
20260507081023 54 0 0.9 6.1 0.00 0.00 0.00 77 1021.2
20260507080528 54 243 0.9 6.1 0.00 0.00 0.00 78 1021.2
20260507080042 54 339 1.7 6.1 0.00 0.00 0.00 78 1021.2
20260507075524 54 0 0.0 4.3 0.00 0.00 0.00 79 1021.3
20260507075024 54 319 0.0 4.3 0.00 0.00 0.00 79 1021.2
20260507074542 54 288 0.9 7.0 0.00 0.00 0.00 79 1021.2
20260507074024 54 356 2.6 7.0 0.00 0.00 0.00 79 1021.3
20260507073525 54 301 2.6 6.1 0.00 0.00 0.00 79 1021.2
20260507073045 54 305 1.7 6.1 0.00 0.00 0.00 79 1021.2
20260507072524 54 4 1.7 7.8 0.00 0.00 0.00 79 1021.2
20260507072024 54 297 3.5 7.8 0.00 0.00 0.00 79 1021.1
20260507071543 54 336 2.6 6.1 0.00 0.00 0.00 79 1021.0
20260507071024 54 340 0.9 5.2 0.00 0.00 0.00 79 1021.0
20260507070524 54 300 2.6 7.0 0.00 0.00 0.00 79 1021.0
20260507070048 54 0 1.7 7.0 0.00 0.00 0.00 79 1021.0
20260507065523 54 340 1.7 6.1 0.00 0.00 0.00 79 1021.0
20260507065024 54 299 0.0 6.1 0.00 0.00 0.00 79 1021.0
20260507064550 54 312 2.6 7.0 0.00 0.00 0.00 79 1021.1
20260507064024 54 319 2.6 7.0 0.00 0.00 0.00 79 1021.0
20260507063525 54 8 2.6 6.1 0.00 0.00 0.00 79 1021.0
20260507063041 54 236 0.0 6.1 0.00 0.00 0.00 79 1021.0
20260507062524 54 309 0.9 7.8 0.00 0.00 0.00 79 1021.2
20260507062024 54 299 2.6 7.8 0.00 0.00 0.00 79 1021.1
20260507061537 54 3 3.5 7.8 0.00 0.00 0.00 79 1021.2
20260507061023 54 351 0.0 6.1 0.00 0.00 0.00 80 1021.2
20260507060524 54 252 1.7 6.1 0.00 0.00 0.00 80 1021.1
20260507060045 54 333 1.7 7.8 0.00 0.00 0.00 79 1021.2
20260507055524 54 298 3.5 7.8 0.00 0.00 0.00 79 1021.1
20260507055024 54 309 2.6 6.1 0.00 0.00 0.00 80 1021.2
20260507054542 54 304 2.6 8.7 0.00 0.00 0.00 80 1021.1
20260507054027 54 318 3.5 8.7 0.00 0.00 0.00 79 1021.2
20260507053524 55 313 3.5 8.7 0.00 0.00 0.00 79 1021.1
20260507053044 55 316 3.5 8.7 0.00 0.00 0.00 79 1021.1
20260507052523 55 300 4.3 7.8 0.00 0.00 0.00 78 1021.1
20260507052023 55 273 4.3 9.6 0.00 0.00 0.00 78 1021.1
20260507051541 55 315 3.5 9.6 0.00 0.00 0.00 78 1021.1
20260507051025 55 23 5.2 9.6 0.00 0.00 0.00 78 1021.2
20260507050524 55 300 3.5 9.6 0.00 0.00 0.00 77 1021.2
20260507050041 55 314 3.5 8.7 0.00 0.00 0.00 77 1021.3
20260507045525 56 324 3.5 9.6 0.00 0.00 0.00 77 1021.2
20260507045024 56 356 5.2 9.6 0.00 0.00 0.00 77 1021.2
20260507044543 56 316 4.3 11.3 0.00 0.00 0.00 77 1021.3
20260507044023 56 0 5.2 11.3 0.00 0.00 0.00 77 1021.2
20260507043524 56 327 5.2 11.3 0.00 0.00 0.00 77 1021.3
20260507043042 56 30 5.2 11.3 0.00 0.00 0.00 77 1021.1
20260507042525 56 321 4.3 11.3 0.00 0.00 0.00 77 1021.1
20260507042025 57 312 4.3 7.8 0.00 0.00 0.00 76 1021.1
20260507041551 57 8 4.3 8.7 0.00 0.00 0.00 77 1021.0
20260507041023 57 343 4.3 8.7 0.00 0.00 0.00 77 1021.0
20260507040527 57 300 4.3 12.2 0.00 0.00 0.00 76 1021.0
20260507040042 57 325 2.6 12.2 0.00 0.00 0.00 77 1020.9
20260507035524 57 301 5.2 12.2 0.00 0.00 0.00 76 1020.9
20260507035024 57 317 4.3 8.7 0.00 0.00 0.00 76 1020.8
20260507034546 58 333 3.5 6.1 0.00 0.00 0.00 76 1020.6
20260507034023 58 321 3.5 10.4 0.00 0.00 0.00 77 1020.6
20260507033526 58 288 5.2 10.4 0.00 0.00 0.00 76 1020.5
20260507033045 58 308 5.2 9.6 0.00 0.00 0.00 76 1020.4
20260507032524 58 310 5.2 8.7 0.00 0.00 0.00 76 1020.5
20260507032023 58 310 4.3 9.6 0.00 0.00 0.00 76 1020.3
20260507031540 58 323 4.3 9.6 0.00 0.00 0.00 76 1020.3
20260507031024 59 330 5.2 8.7 0.00 0.00 0.00 76 1020.2
20260507030526 59 316 4.3 7.8 0.00 0.00 0.00 76 1020.1
20260507030042 59 314 1.7 7.0 0.00 0.00 0.00 76 1020.0
20260507025523 59 23 1.7 7.8 0.00 0.00 0.00 76 1020.0
20260507025023 59 335 2.6 7.8 0.00 0.00 0.00 76 1020.0
20260507024541 60 356 3.5 7.8 0.00 0.00 0.00 76 1019.9
20260507024024 60 321 0.9 7.0 0.00 0.00 0.00 76 1019.9
20260507023524 60 309 4.3 7.0 0.00 0.00 0.00 75 1019.9
20260507023037 60 333 3.5 8.7 0.00 0.00 0.00 74 1019.9
20260507022524 61 306 4.3 8.7 0.00 0.00 0.00 73 1019.9
20260507022024 61 345 2.6 6.1 0.00 0.00 0.00 73 1019.9
20260507021550 62 338 2.6 7.8 0.00 0.00 0.00 72 1019.8
20260507021024 62 315 1.7 8.7 0.00 0.00 0.00 72 1019.9
20260507020525 62 311 4.3 8.7 0.00 0.00 0.00 72 1019.8
20260507020042 63 350 3.5 8.7 0.00 0.00 0.00 71 1019.8
20260507015523 62 349 3.5 9.6 0.00 0.00 0.00 71 1020.0
20260507015026 63 359 5.2 10.4 0.00 0.00 0.00 71 1020.0
20260507014554 63 286 2.6 10.4 0.00 0.00 0.00 71 1019.9
20260507014026 63 321 5.2 10.4 0.00 0.00 0.00 70 1020.0
20260507013525 64 354 3.5 6.1 0.00 0.00 0.00 70 1020.0
20260507013053 64 70 2.6 10.4 0.00 0.00 0.00 71 1020.0
20260507012524 64 15 5.2 10.4 0.00 0.00 0.00 70 1020.0
20260507012027 64 74 2.6 7.8 0.00 0.00 0.00 70 1019.9
20260507011541 64 325 4.3 10.4 0.00 0.00 0.00 70 1019.9
20260507011025 64 23 3.5 10.4 0.00 0.00 0.00 70 1019.9
20260507010525 65 347 4.3 8.7 0.00 0.00 0.00 69 1019.9
20260507010045 65 290 3.5 7.8 0.00 0.00 0.00 71 1019.8
20260507005524 65 320 3.5 7.0 0.00 0.00 0.00 71 1019.8
20260507005024 65 302 3.5 7.0 0.00 0.00 0.00 72 1019.8
20260507004543 65 336 2.6 7.0 0.00 0.00 0.00 73 1019.8
20260507004024 65 304 1.7 5.2 0.00 0.00 0.00 72 1019.8
20260507003524 65 77 0.9 7.8 0.00 0.00 0.00 73 1019.8
20260507003042 65 65 0.9 7.8 0.00 0.00 0.00 72 1019.8
20260507002523 65 351 2.6 7.8 0.00 0.00 0.00 72 1019.7
20260507002023 65 346 1.7 7.0 0.00 0.00 0.00 72 1019.8
20260507001555 65 74 1.7 7.0 0.00 0.00 0.00 71 1019.8
20260507001023 66 39 2.6 6.1 0.00 0.00 0.00 71 1019.7
20260507000528 66 329 1.7 6.1 0.00 0.00 0.00 71 1019.7
20260507000040 66 13 3.5 6.1 0.00 0.00 0.00 70 1019.7
20260506235526 66 337 0.9 5.2 0.00 0.00 0.00 70 1019.7
20260506235026 66 86 3.5 5.2 0.00 0.00 0.00 69 1019.7
20260506234543 67 44 1.7 4.3 0.00 0.00 0.00 68 1019.7
20260506234025 66 281 2.6 5.2 0.00 0.00 0.00 69 1019.6
20260506233524 66 333 0.9 5.2 0.00 0.00 0.00 68 1019.8
20260506233047 66 292 1.7 5.2 0.00 0.00 0.00 68 1019.7
20260506232523 66 304 2.6 5.2 0.00 0.00 0.00 68 1019.8
20260506232023 66 349 2.6 5.2 0.00 0.00 0.00 69 1019.8
20260506231547 67 314 0.0 3.5 0.00 0.00 0.00 67 1019.8
20260506231024 67 340 0.9 3.5 0.00 0.00 0.00 65 1019.9
20260506230523 68 324 0.9 2.6 0.00 0.00 0.00 65 1019.9
20260506230043 67 0 0.0 4.3 0.00 0.00 0.00 66 1020.0
20260506225524 67 349 0.9 4.3 0.00 0.00 0.00 66 1020.0
20260506225027 67 197 0.9 4.3 0.00 0.00 0.00 66 1020.1
20260506224540 67 309 0.9 3.5 0.00 0.00 0.00 68 1020.1
20260506224024 66 356 0.0 2.6 0.00 0.00 0.00 69 1020.1
20260506223524 66 75 0.9 4.3 0.00 0.00 0.00 68 1020.2
20260506223101 66 296 0.9 5.2 0.00 0.00 0.00 70 1020.3
20260506222524 66 36 2.6 5.2 0.00 0.00 0.00 69 1020.3
20260506222024 67 44 2.6 5.2 0.00 0.00 0.00 67 1020.4
20260506221544 67 333 0.0 2.6 0.00 0.00 0.00 67 1020.3
20260506221025 67 266 0.0 1.7 0.00 0.00 0.00 65 1020.4
20260506220525 68 125 0.0 4.3 0.00 0.00 0.00 65 1020.4
20260506220043 67 195 0.9 4.3 0.00 0.00 0.00 66 1020.4
20260506215525 67 143 1.7 5.2 0.00 0.00 0.00 66 1020.3
20260506215024 67 248 1.7 5.2 0.00 0.00 0.00 66 1020.3
20260506214542 66 229 0.0 0.9 0.00 0.00 0.00 70 1020.4
20260506214025 66 123 0.0 4.3 0.00 0.00 0.00 71 1020.3
20260506213524 64 133 0.0 4.3 0.00 0.00 0.00 73 1020.4
20260506213039 64 335 0.9 4.3 0.00 0.00 0.00 72 1020.5
20260506212524 64 81 1.7 3.5 0.00 0.00 0.00 72 1020.5
20260506212026 64 0 0.9 3.5 0.00 0.00 0.00 74 1020.6
20260506211544 64 266 0.0 3.5 0.00 0.00 0.00 75 1020.7
20260506211024 63 322 0.0 3.5 0.00 0.00 0.00 75 1020.7
20260506210524 63 303 0.9 4.3 0.00 0.00 0.00 76 1020.8
20260506210041 62 50 1.7 4.3 0.00 0.00 0.00 76 1020.9
20260506205525 62 309 1.7 4.3 0.00 0.00 0.00 75 1020.8
20260506205024 62 29 0.9 4.3 0.00 0.00 0.00 76 1020.8
20260506204544 63 21 1.7 2.6 0.00 0.00 0.00 75 1020.8
20260506204025 63 0 1.7 2.6 0.00 0.00 0.00 75 1020.7
20260506203524 63 139 0.0 0.9 0.00 0.00 0.00 75 1020.7
20260506203046 62 290 0.0 3.5 0.00 0.00 0.00 77 1020.7
20260506202525 61 16 1.7 3.5 0.00 0.00 0.00 77 1020.8
20260506202027 61 4 0.0 3.5 0.00 0.00 0.00 78 1020.8
20260506201541 61 322 1.7 3.5 0.00 0.00 0.00 77 1020.8
20260506201025 61 3 0.9 2.6 0.00 0.00 0.00 77 1020.9
20260506200525 61 107 0.9 4.3 0.00 0.00 0.00 78 1020.9
20260506195525 61 23 0.9 5.2 0.00 0.00 0.00 79 1021.0
20260506195028 60 0 1.7 5.2 0.00 0.00 0.00 79 1021.0
20260506194546 60 302 1.7 4.3 0.00 0.00 0.00 78 1021.1
20260506194028 60 343 0.9 4.3 0.00 0.00 0.00 79 1021.2
20260506193526 60 330 0.9 4.3 0.00 0.00 0.00 79 1021.1
20260506193045 60 40 0.9 4.3 0.00 0.00 0.00 79 1021.2
20260506192525 60 103 1.7 5.2 0.00 0.00 0.00 78 1021.1
20260506192026 60 319 1.7 5.2 0.00 0.00 0.00 78 1021.1
20260506191541 60 317 0.0 3.5 0.00 0.00 0.00 78 1021.1
20260506191025 60 16 0.9 3.5 0.00 0.00 0.00 78 1020.9
20260506190528 60 307 0.9 3.5 0.00 0.00 0.00 78 1021.0
20260506190041 60 316 0.0 3.5 0.00 0.00 0.00 79 1021.1
20260506185523 60 198 0.9 2.6 0.00 0.00 0.00 78 1021.1
20260506185027 60 0 0.0 2.6 0.00 0.00 0.00 78 1020.9
20260506184536 60 211 0.9 2.6 0.00 0.00 0.00 79 1021.0
20260506184027 60 0 0.0 0.0 0.00 0.00 0.00 79 1020.9
20260506183527 59 0 0.0 0.9 0.00 0.00 0.00 79 1020.8
20260506183044 59 0 0.0 2.6 0.00 0.00 0.00 80 1020.8
20260506182526 59 293 0.9 2.6 0.00 0.00 0.00 80 1021.0
20260506182026 59 0 0.0 1.7 0.00 0.00 0.00 80 1021.0
20260506181543 59 0 0.0 1.7 0.00 0.00 0.00 80 1020.9
20260506181027 58 319 0.0 3.5 0.00 0.00 0.00 81 1020.9
20260506180529 58 350 0.9 3.5 0.00 0.00 0.00 81 1020.9
20260506180048 58 332 0.9 3.5 0.00 0.00 0.00 81 1020.9
20260506175529 58 0 0.9 2.6 0.00 0.00 0.00 80 1020.9
20260506175026 58 0 0.0 2.6 0.00 0.00 0.00 80 1021.0
20260506174541 58 238 0.9 3.5 0.00 0.00 0.00 80 1020.9
20260506174026 59 252 0.9 3.5 0.00 0.00 0.00 79 1020.8
20260506173525 59 283 0.0 1.7 0.00 0.00 0.00 80 1020.8
20260506173037 58 326 0.0 2.6 0.00 0.00 0.00 80 1020.6
20260506172526 58 0 0.0 2.6 0.00 0.00 0.00 80 1020.7
20260506172030 58 44 0.0 2.6 0.00 0.00 0.00 81 1020.7
20260506171551 58 0 0.0 2.6 0.00 0.00 0.00 81 1020.6
20260506171027 57 0 0.0 5.2 0.00 0.00 0.00 82 1020.6
20260506170526 57 341 2.6 5.2 0.00 0.00 0.00 82 1020.6
20260506170043 57 307 0.9 3.5 0.00 0.00 0.00 82 1020.7
20260506165527 57 72 0.9 3.5 0.00 0.00 0.00 82 1020.7
20260506165027 57 308 1.7 3.5 0.00 0.00 0.00 82 1020.6
20260506164542 57 340 1.7 3.5 0.00 0.00 0.00 82 1020.6
20260506164026 58 317 0.9 5.2 0.00 0.00 0.00 82 1020.5
20260506163526 57 51 1.7 5.2 0.00 0.00 0.00 83 1020.5
20260506163047 57 333 1.7 3.5 0.00 0.00 0.00 82 1020.6
20260506162526 57 327 0.9 3.5 0.00 0.00 0.00 82 1020.4
20260506162026 58 323 0.0 1.7 0.00 0.00 0.00 81 1020.4
20260506161553 58 205 0.0 2.6 0.00 0.00 0.00 82 1020.4
20260506161026 57 345 0.0 2.6 0.00 0.00 0.00 83 1020.3
20260506160531 57 300 1.7 2.6 0.00 0.00 0.00 83 1020.3
20260506160043 57 248 0.9 2.6 0.00 0.00 0.00 82 1020.1
20260506155525 57 233 0.0 2.6 0.00 0.00 0.00 82 1020.0
20260506155025 57 0 0.9 1.7 0.00 0.00 0.00 82 1020.0
20260506154545 57 0 0.0 0.9 0.00 0.00 0.00 85 1019.9
20260506154025 56 319 0.0 0.9 0.00 0.00 0.00 86 1019.9
20260506153525 55 0 0.0 2.6 0.00 0.00 0.00 85 1020.2
20260506153043 55 64 0.0 2.6 0.00 0.00 0.00 86 1020.6
20260506152525 55 0 0.9 4.3 0.00 0.00 0.00 86 1020.5
20260506152024 55 0 1.7 4.3 0.00 0.00 0.00 86 1020.6
20260506151548 55 323 1.7 4.3 0.00 0.00 0.00 86 1020.6
20260506151024 55 318 1.7 5.2 0.00 0.00 0.00 86 1020.6
20260506150524 55 345 2.6 5.2 0.00 0.00 0.00 86 1020.6
20260506150037 55 310 2.6 5.2 0.00 0.00 0.00 86 1020.5
20260506145525 55 314 1.7 5.2 0.00 0.00 0.00 86 1020.5
20260506145025 55 25 1.7 5.2 0.00 0.00 0.00 86 1020.2
20260506144541 55 323 2.6 5.2 0.00 0.00 0.00 86 1020.4
20260506144024 55 315 2.6 5.2 0.00 0.00 0.00 86 1020.3
20260506143525 55 345 1.7 5.2 0.00 0.00 0.00 86 1020.2
20260506143042 55 316 3.5 4.3 0.00 0.00 0.00 86 1020.1
20260506142524 55 295 1.7 4.3 0.00 0.00 0.00 86 1019.9
20260506142026 55 305 1.7 3.5 0.00 0.00 0.00 87 1019.8
20260506141541 55 322 0.9 3.5 0.00 0.00 0.00 86 1019.7
20260506141024 55 325 1.7 3.5 0.00 0.00 0.00 86 1019.7
20260506140524 55 335 1.7 3.5 0.00 0.00 0.00 86 1019.8
20260506140045 55 65 0.9 3.5 0.00 0.00 0.00 86 1019.8
20260506135526 55 313 0.9 3.5 0.00 0.00 0.00 86 1019.8
20260506135029 55 320 1.7 3.5 0.00 0.00 0.00 86 1019.7
20260506134609 56 296 0.0 2.6 0.00 0.00 0.00 86 1019.6
20260506134024 56 252 0.0 2.6 0.00 0.00 0.00 86 1019.6
20260506133526 56 328 0.0 1.7 0.00 0.00 0.00 86 1019.6
20260506133043 55 0 0.0 0.0 0.00 0.00 0.00 86 1019.5
20260506132525 55 0 0.0 0.0 0.00 0.00 0.00 86 1019.5
20260506132024 55 0 0.0 0.0 0.00 0.00 0.00 86 1019.4
20260506131600 55 0 0.0 0.0 0.00 0.00 0.00 86 1019.4
20260506131025 55 0 0.0 0.0 0.00 0.00 0.00 86 1019.3
20260506130528 55 0 0.0 0.0 0.00 0.00 0.00 86 1019.3
20260506130041 55 0 0.0 0.9 0.00 0.00 0.00 86 1019.3
20260506125525 55 0 0.0 0.9 0.00 0.00 0.00 86 1019.2
20260506125025 55 0 0.0 0.9 0.00 0.00 0.00 86 1019.1
20260506124541 55 0 0.0 0.9 0.00 0.00 0.00 86 1019.1
20260506124025 55 0 0.0 0.9 0.00 0.00 0.00 86 1019.1
20260506123525 55 245 0.0 1.7 0.00 0.00 0.00 86 1019.2
20260506123045 56 0 0.0 3.5 0.00 0.00 0.00 86 1019.1
20260506122524 56 301 0.9 3.5 0.00 0.00 0.00 85 1019.2
20260506122025 56 0 0.0 5.2 0.00 0.00 0.00 86 1019.1
20260506121545 56 0 1.7 5.2 0.00 0.00 0.00 85 1019.1
20260506121025 56 317 1.7 4.3 0.00 0.00 0.00 85 1019.3
20260506120525 56 304 0.9 3.5 0.00 0.00 0.00 85 1019.2
20260506120043 56 333 1.7 3.5 0.00 0.00 0.00 85 1019.2
20260506115525 56 299 0.9 3.5 0.00 0.00 0.00 85 1019.1
20260506115023 56 324 0.0 4.3 0.00 0.00 0.00 85 1019.0
20260506114547 56 324 1.7 4.3 0.00 0.00 0.00 85 1019.0
20260506114025 56 0 0.9 2.6 0.00 0.00 0.00 85 1018.9
20260506113524 56 230 0.0 3.5 0.00 0.00 0.00 85 1018.9
20260506113042 56 0 0.9 4.3 0.00 0.00 0.00 85 1018.8
20260506112524 56 305 1.7 4.3 0.00 0.00 0.00 85 1018.8
20260506112025 56 285 1.7 4.3 0.00 0.00 0.00 85 1018.7
20260506111542 56 346 1.7 3.5 0.00 0.00 0.00 85 1018.7
20260506111027 56 0 0.0 4.3 0.00 0.00 0.00 85 1018.7
20260506110524 56 321 0.9 5.2 0.00 0.00 0.00 84 1018.6
20260506110044 56 327 2.6 5.2 0.00 0.00 0.00 84 1018.6
20260506105525 56 321 0.0 3.5 0.00 0.00 0.00 85 1018.4
20260506105023 56 323 0.9 3.5 0.00 0.00 0.00 84 1018.3
20260506104542 56 300 1.7 3.5 0.00 0.00 0.00 84 1018.2
20260506104024 56 0 0.0 4.3 0.00 0.00 0.00 84 1018.1
20260506103524 56 300 1.7 4.3 0.00 0.00 0.00 84 1018.0
20260506103041 56 311 0.9 4.3 0.00 0.00 0.00 84 1018.0
20260506102526 56 326 0.9 4.3 0.00 0.00 0.00 84 1018.0
20260506102025 56 307 0.9 3.5 0.00 0.00 0.00 84 1017.9
20260506101541 56 285 0.0 1.7 0.00 0.00 0.00 84 1017.8
20260506101024 56 311 0.0 3.5 0.00 0.00 0.00 84 1017.8
20260506100524 56 302 0.0 3.5 0.00 0.00 0.00 84 1017.8
20260506100040 56 311 0.9 3.5 0.00 0.00 0.00 84 1017.8